Temp_Advection
nan nan nan nan nan nan nan nan nan nan nan nan nan nan nan nan nan nan nan nan nan nan nan nan nan nan nan nan nan nan nan nan nan nan nan nan nan nan nan nan nan nan nan
nan -0 -0 1 0 0 0 -0 -0 0 0 0 0 -0 -0 -0 0 0 -0 -0 0 0 0 0 -0 0 0 0 -0 0 0 0 0 -0 -0 -0 -0 -0 -0 -0 -0 -0 nan
nan -0 -0 1 0 0 1 0 -0 0 0 0 0 -0 0 0 0 -0 -0 -0 0 0 -0 0 0 0 -0 0 0 -0 0 0 0 0 -0 -0 -1 -0 -0 -0 -0 -0 nan
nan -0 0 1 1 1 0 0 0 0 0 0 0 -0 0 0 0 -0 -0 0 0 -0 0 0 -0 -0 -0 -0 0 0 0 0 0 0 0 0 -0 -0 -1 -0 -0 -0 nan
nan -0 0 1 0 1 0 -0 -0 -0 0 1 0 0 0 0 -0 -0 0 0 -0 -0 0 0 0 -0 -0 0 0 0 0 0 0 -0 -0 0 0 0 -0 -0 0 -0 nan
nan 0 0 0 -0 -0 0 -0 -0 0 -0 -0 0 0 0 0 0 0 -0 0 0 0 0 0 0 0 0 0 0 0 0 0 0 0 -0 -0 -0 0 -0 -0 0 0 nan
nan 0 1 1 -0 -1 0 -0 -0 -0 -0 0 0 -0 0 0 0 0 0 0 0 0 0 0 0 0 0 0 0 -0 -0 -0 -0 -0 -0 0 0 -0 0 -0 -0 -0 nan
nan -0 -0 0 0 -0 -0 0 0 -0 -0 0 0 -0 0 0 0 0 0 0 0 -0 0 0 0 0 0 0 0 0 -0 0 -0 -0 -0 0 0 -0 -0 -0 -0 -0 nan
nan -0 -0 -0 -1 1 1 0 0 0 0 -0 -0 0 0 -0 1 0 0 0 0 0 0 0 0 0 0 0 -0 0 0 0 -0 -0 -0 -0 -0 0 -0 -0 -0 -0 nan
nan -1 -0 0 0 1 0 0 1 1 0 -1 -1 0 0 0 1 0 0 0 0 0 0 1 1 0 0 0 0 0 -0 -0 0 -0 0 -0 -0 -0 -0 -0 -0 -0 nan
nan -1 -2 -2 -0 1 2 2 1 -0 -0 -0 -0 0 0 0 0 0 1 1 0 1 1 1 0 0 0 0 0 0 -0 -0 -0 -0 -0 -0 -0 -0 -0 -0 -0 -0 nan
nan -1 -1 -1 -0 -0 0 -0 -0 -0 -0 0 0 0 0 0 1 1 1 1 1 1 1 0 0 0 0 0 0 0 -0 -0 -0 -0 -0 -0 -0 -0 0 -0 -0 -0 nan
nan -1 -1 -1 -1 -0 -0 -0 0 -0 -0 0 0 0 0 1 1 1 1 0 1 1 0 0 0 0 0 -0 0 0 -0 -0 -0 -0 -0 -0 -0 -0 -0 -0 -0 -0 nan
nan -0 -0 -0 -0 -0 0 1 1 0 1 1 1 1 2 2 1 1 1 1 1 2 1 0 0 -0 0 0 0 0 -0 -0 -0 -0 -0 -0 -0 -0 -0 -0 -0 -0 nan
nan 0 -1 -0 -0 -0 -0 0 1 1 2 2 2 2 2 2 2 1 0 0 -0 0 1 1 0 0 0 0 0 -0 -0 -0 -0 -0 -0 -0 -0 -0 -0 -0 -0 -0 nan
nan -0 -1 -0 -0 -0 -1 -1 -0 0 0 1 1 1 0 0 1 1 1 0 -0 -1 0 1 0 0 0 0 0 0 -0 -0 -0 -0 -0 -0 -0 -0 -0 -0 -0 -0 nan
nan -0 -0 -0 0 0 -0 -0 -1 -0 0 -0 -0 -0 0 -0 0 0 -1 -1 0 0 0 0 0 0 0 -0 0 -0 -0 -0 -0 -0 -0 -0 -0 -0 -0 -0 -0 -0 nan
nan -0 -0 -0 -0 -0 -0 0 0 -0 0 0 0 0 -0 -0 -1 0 1 -0 -0 -0 -0 0 0 -0 -0 -0 -0 -0 -0 -0 -0 -0 -0 -0 0 -0 -0 -0 -0 -0 nan
nan -0 -0 -0 -0 0 -0 -0 -0 -0 -0 -1 -0 0 -0 -0 0 0 0 0 -0 0 0 0 0 0 0 0 -0 -0 0 -0 -0 -0 0 0 0 0 -0 -0 -0 0 nan
nan 0 -0 -1 -1 -0 0 -0 -0 -0 -0 -0 -0 -0 -0 -0 -0 -0 -0 0 0 0 0 0 0 0 0 0 -0 -0 -0 -0 0 -0 -0 -0 -0 0 0 -0 -0 -0 nan
nan -0 0 -0 -0 -0 -0 -0 -0 -0 -0 -0 -0 -0 -0 -0 -0 -0 -0 -0 0 0 0 0 0 0 -0 -0 -0 -0 -0 -0 -0 0 0 -0 -0 -0 -0 -0 -0 -0 nan
nan -0 -0 -0 -0 -0 -0 -0 -0 -0 -0 -0 -0 -0 -0 -0 -0 -0 0 0 0 0 0 0 0 -0 -0 -0 -0 -0 -0 -0 -0 -0 0 -0 -0 -0 -0 -0 -0 -0 nan
nan 0 -0 -0 -0 -0 -0 -0 -0 -0 -0 -0 -0 -0 -0 -0 0 0 0 0 0 0 0 0 -0 -0 -0 -0 -0 -0 -0 -0 -0 0 0 0 -0 -0 -0 -0 -0 -0 nan
nan 0 -0 -0 -0 -0 -0 -0 -0 -0 -0 -0 -0 0 0 0 0 0 0 0 0 0 0 -0 -0 -0 -0 -0 -0 -0 -0 0 -0 0 0 0 -0 -0 -0 -0 -0 -0 nan
nan 0 0 0 0 0 0 0 -0 -0 0 0 0 0 0 0 0 0 0 0 0 0 0 -0 -0 -0 -0 0 0 -0 -0 -0 0 0 0 -0 -0 -0 -0 -0 -0 -0 nan
nan nan nan nan nan nan nan nan nan nan nan nan nan nan nan nan nan nan nan nan nan nan nan nan nan nan nan nan nan nan nan nan nan nan nan nan nan nan nan nan nan nan nan
Wind_Speed
23 23 28 31 30 31 29 25 25 22 23 21 23 21 21 20 18 17 16 16 17 17 17 17 16 15 14 14 16 15 16 14 15 15 15 15 15 14 14 16 17 17 16
24 22 25 31 31 32 34 30 26 26 24 25 22 23 22 23 22 21 20 18 18 18 18 18 18 18 17 16 17 17 17 16 16 15 16 16 16 15 16 16 16 17 16
24 15 27 28 29 33 30 33 30 27 27 26 28 26 26 25 22 21 21 20 20 20 20 19 18 17 18 15 15 18 16 15 16 15 15 14 16 18 17 17 16 15 15
36 32 31 29 32 34 34 28 27 29 30 30 30 29 29 28 27 24 23 22 21 22 21 18 17 16 15 14 14 15 14 14 12 13 13 13 14 15 16 15 12 12 12
31 35 38 37 37 36 40 39 32 30 29 29 32 33 30 29 26 26 24 23 21 20 20 17 15 13 16 12 11 13 12 13 12 14 18 17 15 12 12 12 10 9 11
22 28 27 31 36 36 38 40 34 33 32 30 30 33 33 31 29 26 25 24 21 19 18 14 13 13 11 10 12 13 14 16 16 15 14 13 13 12 11 11 10 7 6
16 20 23 26 32 35 35 38 42 38 34 29 32 31 34 33 30 27 25 24 22 18 15 14 14 13 12 12 12 13 15 15 14 14 14 13 11 10 8 7 7 7 9
14 18 22 28 33 36 37 37 38 38 40 39 36 33 32 33 32 28 26 25 22 21 18 16 15 15 14 13 11 12 13 13 12 13 13 10 9 7 7 8 5 6 8
11 15 19 24 31 36 38 38 43 45 44 42 33 34 33 36 33 30 28 25 24 23 21 18 17 16 14 12 11 10 9 9 9 9 7 5 7 10 9 6 6 7 8
17 21 24 27 32 34 35 37 36 35 35 39 35 35 34 32 32 31 28 27 26 24 20 17 14 11 10 9 4 2 4 5 5 6 7 5 2 2 3 4 5 7 7
21 24 27 29 31 34 37 35 33 30 30 35 34 33 31 30 29 29 27 27 26 22 15 11 8 7 6 7 6 4 3 2 2 1 2 1 2 2 3 5 6 6 7
20 22 22 20 16 20 24 32 30 30 34 33 32 33 28 27 29 27 25 22 20 15 12 10 12 11 8 7 6 6 7 8 7 8 8 8 6 6 6 6 6 7 8
16 26 24 15 12 8 15 24 28 27 36 35 35 30 30 32 28 24 19 18 16 16 17 17 14 10 12 13 11 11 10 9 9 8 8 8 7 7 7 8 9 10 10
16 26 30 19 11 5 16 20 18 28 32 36 31 28 33 33 31 27 22 21 22 25 23 19 16 15 12 11 8 6 5 5 6 7 7 6 6 6 7 9 9 11 8
16 23 26 31 30 17 7 1 10 19 23 28 26 32 36 35 30 27 26 26 22 22 24 19 17 12 11 8 6 5 5 5 4 4 4 4 5 6 8 10 10 9 9
17 17 17 25 33 40 34 28 21 14 13 21 31 37 35 32 31 30 31 27 21 22 18 17 16 14 12 9 6 4 3 3 3 3 2 2 4 5 6 7 8 8 10
12 6 8 13 19 24 31 35 36 32 30 31 32 29 26 31 30 26 26 27 25 21 16 15 14 11 10 9 8 7 7 6 6 6 5 3 4 5 5 6 7 8 9
3 6 1 8 13 19 22 26 31 29 29 27 22 18 19 25 31 28 27 24 22 15 13 12 12 11 10 7 5 4 3 3 3 3 4 4 3 3 6 7 8 8 10
10 11 11 13 13 14 15 19 20 19 20 23 24 23 23 27 25 22 17 13 17 16 15 13 11 9 6 4 1 0 2 4 6 8 7 6 7 7 8 9 9 9 9
16 16 17 18 18 17 18 20 21 21 22 22 22 23 24 23 23 22 20 18 17 15 13 10 8 5 3 1 2 6 9 9 7 5 6 7 9 9 8 9 9 8 7
14 16 15 16 16 18 20 19 18 18 20 20 20 19 18 18 19 17 15 14 12 10 9 7 5 2 2 5 8 7 4 4 6 6 6 6 8 6 8 8 6 4 4
14 14 15 15 16 17 17 16 15 15 17 19 19 16 14 13 13 12 11 11 10 8 6 3 2 6 7 6 3 3 5 5 6 7 7 7 6 6 6 3 2 3 6
11 11 11 10 10 11 11 12 13 12 13 13 13 11 10 10 11 10 10 10 8 5 3 4 6 6 4 3 4 4 5 6 7 7 7 5 4 4 3 2 3 6 9
11 9 9 8 10 10 8 8 9 11 10 10 9 7 7 8 10 10 9 7 5 4 5 3 1 3 3 4 5 6 7 6 7 7 6 4 3 3 2 3 6 8 7
9 10 11 9 9 10 9 10 9 11 11 11 8 8 8 9 11 10 8 6 5 3 1 1 2 2 3 5 6 7 7 7 5 4 2 1 2 1 4 5 4 4 6
14 12 12 9 9 10 13 14 13 13 12 11 10 10 11 12 11 10 7 5 4 3 2 1 1 2 4 6 6 6 5 3 1 1 3 1 2 3 2 3 3 3 4
Wind_Direction
237 242 249 252 251 248 246 245 243 248 247 246 244 244 246 246 244 247 250 259 261 265 272 278 277 277 273 274 278 280 290 288 291 300 301 315 315 315 311 312 311 314 316
255 245 246 248 252 254 249 246 245 246 245 247 247 247 250 251 250 250 255 261 261 266 275 278 274 273 275 278 280 282 285 288 289 291 301 311 312 312 312 312 311 313 315
230 239 243 256 252 246 250 247 246 245 247 247 246 248 251 250 250 252 259 260 259 268 276 273 276 275 278 279 286 289 288 289 294 292 298 300 305 307 309 308 308 308 308
235 240 247 258 261 252 246 251 249 249 246 246 246 250 252 253 255 256 255 259 265 270 273 273 272 263 262 271 286 287 287 290 289 296 298 299 298 301 303 305 313 312 310
252 254 256 260 261 255 250 249 264 246 245 245 245 246 252 253 253 255 254 260 266 270 273 272 265 261 267 265 274 277 285 290 295 298 304 302 301 303 302 296 304 307 313
242 246 252 258 257 259 266 253 264 259 247 240 246 245 248 250 252 253 255 263 269 270 266 264 257 259 261 260 268 279 285 294 299 299 302 305 307 305 305 304 305 315 316
265 263 256 252 256 257 260 255 262 260 253 248 248 246 246 244 247 246 253 259 268 268 260 254 251 249 252 264 278 284 291 297 298 297 298 295 291 291 286 285 293 300 302
271 269 266 265 261 259 256 255 254 251 254 261 257 243 247 244 240 241 247 257 261 256 251 248 250 249 251 261 271 283 292 292 292 293 286 285 289 291 301 307 322 340 326
287 283 278 272 264 262 258 252 249 253 256 252 251 248 244 247 239 238 247 246 250 248 247 247 252 251 258 274 286 286 286 288 287 298 302 328 58 63 50 57 44 36 4
308 300 291 278 272 261 257 252 246 243 246 243 250 246 239 243 238 238 241 237 240 239 241 251 251 256 272 280 267 177 105 87 60 65 83 82 36 29 347 333 340 346 353
325 314 303 290 278 260 257 246 243 246 245 246 238 236 234 231 230 229 231 231 237 238 242 232 246 245 173 143 141 111 89 88 56 44 74 68 46 44 34 32 31 24 19
340 326 310 300 284 289 247 234 233 246 242 232 231 226 230 226 226 224 230 232 231 222 201 183 160 149 149 154 135 105 92 83 83 88 90 87 84 79 66 47 27 15 4
7 13 1 334 297 251 238 233 229 235 238 239 219 224 233 219 208 204 205 195 187 180 166 155 148 147 137 120 115 99 86 88 89 89 87 85 81 68 53 37 22 10 0
34 34 29 26 5 284 225 216 227 228 223 219 208 208 197 186 187 183 181 182 177 165 153 144 129 122 119 108 104 90 85 81 85 88 84 78 68 56 34 14 12 1 1
62 52 47 48 49 48 53 159 199 208 207 194 189 182 167 152 142 151 145 137 134 128 118 117 111 116 123 127 126 112 93 80 79 87 83 63 38 34 14 5 8 13 13
54 28 51 63 73 77 74 83 88 104 146 142 132 122 111 109 114 117 117 122 123 105 108 113 123 133 132 126 120 114 114 116 113 101 69 29 33 28 22 25 24 20 14
31 84 67 77 86 84 87 89 85 86 95 101 103 110 114 108 102 97 86 90 98 114 131 129 127 123 120 119 114 105 90 77 65 61 53 28 28 26 28 11 6 7 355
28 147 140 112 111 121 119 114 109 111 115 118 120 121 113 102 95 103 113 115 126 135 136 133 126 125 124 116 105 89 64 50 27 1 354 357 335 347 352 349 342 338 341
126 117 111 120 129 125 120 118 118 123 122 115 110 108 104 109 114 124 132 143 143 143 145 145 143 139 135 131 112 328 298 308 318 319 306 302 309 323 324 324 320 316 325
119 116 115 116 116 122 119 115 113 113 113 114 113 115 120 127 135 138 141 140 140 140 139 141 141 144 144 138 310 309 307 309 319 330 316 309 303 307 309 311 313 313 312
125 121 121 121 128 131 127 122 118 123 125 126 128 130 135 138 136 137 133 136 140 143 148 155 154 156 306 309 314 324 338 337 326 317 311 307 306 315 320 320 322 334 329
136 133 132 130 133 140 138 134 126 122 126 128 126 128 139 148 153 151 147 149 156 160 163 168 281 306 309 310 323 339 330 329 326 322 317 317 322 330 328 336 359 341 329
157 158 154 150 161 158 155 155 153 149 144 143 139 135 134 147 159 164 169 167 169 180 224 289 312 323 347 354 345 334 320 311 309 305 304 311 325 339 336 315 318 320 316
189 187 187 192 185 178 182 190 189 181 178 176 170 168 170 176 186 186 185 190 213 257 294 323 356 349 354 341 326 320 317 310 305 304 299 308 329 343 326 323 320 322 340
196 193 187 185 193 201 204 202 201 197 191 188 189 198 201 199 200 204 217 239 262 245 200 48 31 360 339 329 322 320 324 318 302 279 289 73 100 19 331 331 350 352 359
213 209 209 219 210 210 205 200 193 189 185 192 203 212 209 205 211 223 232 208 182 166 151 133 348 346 337 328 326 322 322 316 347 120 101 74 20 357 0 24 15 5 22
Height
1532 1536 1540 1544 1548 1551 1554 1556 1559 1561 1564 1565 1566 1567 1569 1570 1571 1571 1572 1572 1573 1575 1575 1575 1575 1576 1577 1577 1576 1576 1575 1575 1574 1573 1570 1568 1567 1566 1565 1564 1563 1561 1559
1529 1530 1531 1535 1541 1545 1547 1550 1553 1555 1558 1560 1562 1563 1564 1564 1565 1567 1568 1568 1568 1570 1571 1571 1571 1572 1572 1572 1573 1573 1572 1572 1571 1568 1567 1565 1563 1562 1561 1560 1559 1558 1557
1523 1523 1524 1529 1532 1536 1539 1543 1546 1549 1551 1554 1556 1557 1558 1560 1561 1562 1563 1564 1564 1565 1566 1566 1567 1568 1567 1568 1568 1568 1568 1567 1565 1564 1563 1561 1559 1558 1557 1556 1555 1554 1553
1519 1520 1521 1523 1527 1530 1533 1535 1537 1540 1543 1545 1548 1551 1552 1555 1557 1558 1559 1559 1560 1561 1562 1563 1562 1562 1562 1562 1562 1563 1564 1563 1563 1561 1560 1559 1557 1555 1554 1553 1553 1551 1551
1511 1513 1516 1519 1521 1523 1524 1528 1530 1532 1534 1537 1539 1542 1545 1547 1550 1552 1554 1555 1556 1556 1557 1558 1558 1557 1558 1556 1558 1559 1560 1560 1559 1557 1555 1554 1553 1552 1551 1550 1550 1550 1549
1506 1508 1510 1512 1513 1515 1517 1519 1521 1525 1526 1528 1531 1534 1536 1540 1543 1547 1549 1550 1552 1552 1553 1553 1553 1554 1555 1555 1556 1557 1557 1556 1555 1553 1552 1552 1550 1549 1549 1549 1548 1548 1548
1501 1503 1503 1505 1505 1507 1509 1511 1511 1515 1519 1519 1523 1525 1527 1531 1535 1540 1544 1545 1546 1547 1548 1548 1549 1551 1551 1552 1553 1553 1552 1551 1550 1550 1549 1549 1548 1547 1546 1546 1546 1545 1544
1498 1498 1498 1497 1497 1497 1499 1499 1501 1505 1508 1511 1514 1517 1520 1523 1527 1532 1536 1539 1541 1542 1543 1544 1545 1546 1547 1548 1549 1548 1548 1547 1547 1546 1546 1545 1545 1544 1544 1544 1544 1543 1542
1494 1493 1491 1489 1486 1485 1485 1488 1490 1493 1496 1501 1505 1509 1512 1514 1520 1524 1528 1532 1535 1536 1538 1538 1540 1541 1543 1544 1544 1544 1544 1544 1544 1543 1543 1543 1543 1543 1543 1543 1543 1542 1542
1490 1487 1484 1481 1477 1474 1474 1476 1480 1484 1487 1491 1495 1500 1503 1507 1512 1516 1520 1524 1528 1531 1532 1534 1536 1537 1538 1539 1540 1541 1541 1543 1543 1541 1541 1541 1542 1542 1543 1543 1542 1541 1541
1483 1479 1475 1469 1465 1462 1463 1465 1470 1474 1478 1480 1487 1492 1497 1501 1505 1509 1513 1518 1522 1524 1527 1530 1533 1534 1535 1537 1539 1540 1540 1541 1541 1541 1540 1541 1542 1542 1542 1541 1541 1541 1540
1479 1472 1464 1458 1455 1451 1449 1456 1463 1467 1469 1473 1480 1484 1488 1494 1498 1502 1507 1512 1516 1520 1524 1528 1530 1532 1535 1537 1539 1538 1539 1539 1541 1541 1540 1541 1543 1543 1542 1542 1541 1541 1540
1479 1470 1461 1455 1450 1448 1450 1454 1458 1462 1464 1466 1468 1476 1481 1488 1493 1494 1502 1508 1513 1517 1522 1526 1529 1532 1534 1536 1539 1538 1539 1541 1541 1542 1542 1541 1542 1543 1542 1541 1540 1540 1538
1479 1473 1466 1457 1451 1448 1448 1450 1453 1455 1457 1462 1463 1467 1478 1480 1483 1491 1497 1504 1509 1514 1520 1524 1528 1530 1536 1535 1538 1540 1540 1541 1540 1541 1542 1542 1542 1542 1541 1540 1539 1537 1538
1480 1477 1473 1465 1457 1452 1452 1452 1452 1454 1457 1457 1459 1467 1471 1474 1476 1483 1491 1498 1506 1514 1518 1524 1526 1532 1535 1538 1538 1540 1540 1541 1542 1542 1542 1543 1542 1541 1540 1539 1537 1537 1536
1479 1481 1480 1475 1470 1466 1465 1462 1462 1461 1463 1464 1470 1476 1482 1481 1483 1490 1493 1502 1512 1520 1526 1526 1529 1534 1537 1539 1539 1540 1541 1542 1541 1541 1542 1542 1540 1539 1538 1538 1537 1535 1534
1481 1482 1483 1482 1479 1478 1475 1475 1476 1476 1479 1479 1483 1490 1493 1490 1494 1498 1500 1509 1516 1523 1529 1531 1533 1536 1539 1540 1541 1542 1541 1542 1542 1541 1541 1540 1540 1540 1538 1536 1535 1534 1535
1484 1485 1484 1485 1484 1484 1483 1483 1482 1483 1486 1487 1491 1493 1495 1497 1500 1507 1512 1518 1524 1530 1533 1534 1535 1537 1539 1540 1541 1541 1542 1542 1541 1541 1539 1538 1537 1538 1538 1536 1535 1534 1533
1486 1487 1487 1487 1488 1489 1489 1489 1490 1491 1491 1496 1497 1500 1503 1506 1511 1516 1519 1523 1526 1531 1534 1535 1536 1536 1537 1539 1540 1540 1540 1540 1539 1538 1537 1536 1535 1534 1536 1535 1535 1533 1532
1489 1490 1490 1491 1492 1494 1494 1495 1497 1499 1500 1503 1505 1507 1509 1514 1519 1521 1523 1526 1529 1532 1535 1536 1535 1537 1537 1536 1537 1538 1537 1536 1534 1534 1534 1533 1532 1533 1533 1533 1532 1531 1529
1492 1493 1494 1495 1498 1499 1500 1501 1502 1506 1508 1509 1510 1513 1517 1520 1521 1525 1525 1528 1532 1534 1535 1536 1536 1535 1535 1534 1534 1534 1534 1533 1531 1530 1531 1531 1532 1532 1530 1529 1528 1527 1528
1494 1496 1498 1500 1501 1503 1504 1506 1507 1509 1510 1513 1514 1517 1521 1523 1525 1527 1528 1530 1531 1533 1535 1534 1534 1533 1532 1532 1531 1531 1531 1530 1529 1529 1529 1529 1529 1529 1528 1527 1526 1527 1527
1497 1498 1500 1502 1504 1505 1507 1508 1510 1512 1514 1516 1518 1520 1521 1524 1526 1528 1530 1530 1531 1532 1533 1532 1531 1530 1530 1530 1529 1529 1528 1528 1527 1527 1528 1527 1526 1526 1526 1526 1526 1525 1525
1497 1498 1500 1501 1503 1505 1507 1509 1510 1512 1513 1516 1517 1520 1523 1524 1526 1528 1529 1530 1530 1529 1528 1527 1528 1528 1528 1528 1528 1527 1526 1526 1525 1524 1524 1524 1525 1525 1525 1525 1524 1524 1524
1495 1496 1498 1500 1502 1503 1505 1507 1509 1511 1513 1515 1517 1520 1522 1523 1525 1526 1526 1527 1527 1526 1525 1526 1526 1527 1527 1526 1526 1525 1523 1522 1521 1523 1523 1523 1522 1523 1524 1524 1522 1523 1521
1492 1494 1496 1498 1499 1500 1502 1504 1507 1510 1512 1514 1517 1518 1520 1521 1523 1523 1524 1523 1523 1523 1524 1524 1524 1525 1525 1525 1524 1523 1522 1521 1521 1520 1522 1523 1522 1522 1522 1522 1522 1522 1520